Location: Calvatone
(45.1167°N, 10.4333°E)
Time: 18:22:21
(UTC+00:00)

PCSat - Pass Details

Date: 05 December 2023
Orbit: 784 x 791 km, 67.0° (Epoch: 22 February)

Event Time Altitude Azimuth Distance (km) Brightness Sun altitude
Exits shadow 02:23:52 12° 66° (ENE) 2,216 12.4 -44.3°
Drops below altitude 10° 02:24:24 10° 61° (ENE) 2,353 12.6 -44.3°
Sets 02:27:25 0° 45° (NE) 3,289 13.4 -43.7°
